Time,TemperatureF,DewpointF,PressureIn,WindDirection,WindDirectionDegrees,WindSpeedMPH,WindSpeedGustMPH,Humidity,HourlyPrecipIn,Conditions,Clouds,dailyrainin,SoftwareType,DateUTC
2013-10-25 00:08:00,36.9,33.4,30.31,North,-999,0.0,0.0,87,0.00,,,-99.99,WeatherLink 5.7,2013-10-25 05:08:00,
2013-10-25 00:38:00,37.2,33.4,30.31,North,-999,0.0,1.0,86,0.00,,,-99.99,WeatherLink 5.7,2013-10-25 05:38:00,
2013-10-25 01:08:00,37.2,33.1,30.30,SSE,157,0.0,2.0,85,0.00,,,-99.99,WeatherLink 5.7,2013-10-25 06:08:00,
2013-10-25 01:38:00,37.2,33.1,30.31,SSE,157,0.0,2.0,85,0.00,,,-99.99,WeatherLink 5.7,2013-10-25 06:38:00,
2013-10-25 02:09:00,37.2,33.4,30.30,North,-999,0.0,0.0,86,0.00,,,-99.99,WeatherLink 5.7,2013-10-25 07:09:00,
2013-10-25 02:38:00,37.3,33.5,30.30,North,-999,0.0,1.0,86,0.00,,,-99.99,WeatherLink 5.7,2013-10-25 07:38:00,
2013-10-25 03:08:00,37.3,33.8,30.30,North,-999,0.0,2.0,87,0.00,,,-99.99,WeatherLink 5.7,2013-10-25 08:08:00,
2013-10-25 03:39:00,37.3,34.4,30.31,North,-999,0.0,0.0,89,0.00,,,-99.99,WeatherLink 5.7,2013-10-25 08:39:00,
2013-10-25 04:08:00,36.8,33.9,30.29,North,-999,0.0,1.0,89,0.00,,,-99.99,WeatherLink 5.7,2013-10-25 09:08:00,
2013-10-25 04:38:00,36.2,33.5,30.29,North,-999,0.0,1.0,90,0.00,,,-99.99,WeatherLink 5.7,2013-10-25 09:38:00,
2013-10-25 05:08:00,35.6,33.0,30.30,North,-999,0.0,0.0,90,0.00,,,-99.99,WeatherLink 5.7,2013-10-25 10:08:00,
2013-10-25 05:39:00,34.7,32.3,30.30,North,-999,0.0,0.0,91,0.00,,,-99.99,WeatherLink 5.7,2013-10-25 10:39:00,
2013-10-25 06:08:00,33.4,31.1,30.29,North,-999,0.0,0.0,91,0.00,,,-99.99,WeatherLink 5.7,2013-10-25 11:08:00,
2013-10-25 06:38:00,32.1,30.3,30.29,North,-999,0.0,0.0,93,0.00,,,-99.99,WeatherLink 5.7,2013-10-25 11:38:00,
2013-10-25 07:08:00,31.1,29.6,30.28,North,-999,0.0,0.0,94,0.00,,,-99.99,WeatherLink 5.7,2013-10-25 12:08:00,
2013-10-25 07:39:00,30.3,28.8,30.28,North,-999,0.0,0.0,94,0.00,,,-99.99,WeatherLink 5.7,2013-10-25 12:39:00,
2013-10-25 08:08:00,29.7,28.4,30.27,North,-999,0.0,0.0,95,0.00,,,-99.99,WeatherLink 5.7,2013-10-25 13:08:00,
2013-10-25 08:38:00,29.5,28.5,30.26,SSE,157,0.0,2.0,96,0.00,,,-99.99,WeatherLink 5.7,2013-10-25 13:38:00,
2013-10-25 09:09:00,29.9,29.2,30.26,SSE,157,0.0,3.0,97,0.00,,,-99.99,WeatherLink 5.7,2013-10-25 14:09:00,
2013-10-25 09:38:00,30.7,29.7,30.24,SSE,157,1.0,3.0,96,0.00,,,-99.99,WeatherLink 5.7,2013-10-25 14:38:00,
2013-10-25 10:08:00,32.2,30.7,30.22,SSE,157,1.0,4.0,94,0.00,,,-99.99,WeatherLink 5.7,2013-10-25 15:08:00,
2013-10-25 10:39:00,35.0,31.5,30.19,South,180,1.0,4.0,87,0.00,,,-99.99,WeatherLink 5.7,2013-10-25 15:39:00,
2013-10-25 11:08:00,37.8,32.8,30.18,SW,225,1.0,4.0,82,0.00,,,-99.99,WeatherLink 5.7,2013-10-25 16:08:00,
2013-10-25 11:38:00,40.2,33.9,30.16,SW,225,1.0,4.0,78,0.00,,,-99.99,WeatherLink 5.7,2013-10-25 16:38:00,
2013-10-25 12:09:00,42.0,35.0,30.14,SW,225,2.0,5.0,76,0.00,,,-99.99,WeatherLink 5.7,2013-10-25 17:09:00,
2013-10-25 12:38:00,43.3,35.6,30.10,SE,135,2.0,5.0,74,0.00,,,-99.99,WeatherLink 5.7,2013-10-25 17:38:00,
2013-10-25 13:09:00,44.2,36.1,30.06,SW,225,2.0,5.0,73,0.00,,,-99.99,WeatherLink 5.7,2013-10-25 18:09:00,
2013-10-25 13:38:00,46.1,37.2,30.04,SW,225,2.0,5.0,71,0.00,,,-99.99,WeatherLink 5.7,2013-10-25 18:38:00,
2013-10-25 14:08:00,48.6,39.3,30.01,SSW,202,2.0,5.0,70,0.00,,,-99.99,WeatherLink 5.7,2013-10-25 19:08:00,
2013-10-25 14:39:00,50.3,40.9,29.97,SSW,202,1.0,6.0,70,0.00,,,-99.99,WeatherLink 5.7,2013-10-25 19:39:00,
2013-10-25 15:08:00,50.6,40.4,29.95,SSW,202,1.0,5.0,68,0.00,,,-99.99,WeatherLink 5.7,2013-10-25 20:08:00,
2013-10-25 15:39:00,51.1,41.3,29.93,SW,225,1.0,5.0,69,0.00,,,-99.99,WeatherLink 5.7,2013-10-25 20:39:00,
2013-10-25 16:08:00,51.8,41.6,29.90,SW,225,2.0,5.0,68,0.00,,,-99.99,WeatherLink 5.7,2013-10-25 21:08:00,
2013-10-25 16:39:00,52.7,42.4,29.87,SW,225,1.0,4.0,68,0.00,,,-99.99,WeatherLink 5.7,2013-10-25 21:39:00,
2013-10-25 17:09:00,53.6,43.7,29.83,SW,225,1.0,4.0,69,0.00,,,-99.99,WeatherLink 5.7,2013-10-25 22:09:00,
2013-10-25 17:38:00,53.8,44.6,29.81,SSW,202,2.0,4.0,71,0.00,,,-99.99,WeatherLink 5.7,2013-10-25 22:38:00,
2013-10-25 18:09:00,54.2,44.2,29.80,SSW,202,1.0,5.0,69,0.00,,,-99.99,WeatherLink 5.7,2013-10-25 23:09:00,
2013-10-25 18:39:00,54.5,44.5,29.79,SE,135,1.0,4.0,69,0.00,,,-99.99,WeatherLink 5.7,2013-10-25 23:39:00,
2013-10-25 19:09:00,54.2,45.0,29.79,SE,135,1.0,3.0,71,0.00,,,-99.99,WeatherLink 5.7,2013-10-26 00:09:00,
2013-10-25 19:39:00,54.1,44.9,29.80,East,90,1.0,3.0,71,0.00,,,-99.99,WeatherLink 5.7,2013-10-26 00:39:00,
2013-10-25 20:09:00,55.1,45.1,29.79,WNW,292,1.0,4.0,69,0.00,,,-99.99,WeatherLink 5.7,2013-10-26 01:09:00,
2013-10-25 20:39:00,56.2,46.2,29.79,West,270,1.0,4.0,69,0.00,,,-99.99,WeatherLink 5.7,2013-10-26 01:39:00,
2013-10-25 21:08:00,56.4,46.4,29.78,West,270,1.0,4.0,69,0.00,,,-99.99,WeatherLink 5.7,2013-10-26 02:08:00,
2013-10-25 21:39:00,56.3,46.3,29.78,South,180,1.0,3.0,69,0.00,,,-99.99,WeatherLink 5.7,2013-10-26 02:39:00,
2013-10-25 22:09:00,56.0,46.7,29.79,South,180,0.0,3.0,71,0.00,,,-99.99,WeatherLink 5.7,2013-10-26 03:09:00,
2013-10-25 22:38:00,55.3,46.8,29.79,South,180,0.0,3.0,73,0.00,,,-99.99,WeatherLink 5.7,2013-10-26 03:38:00,
2013-10-25 23:09:00,54.3,46.9,29.79,South,180,0.0,2.0,76,0.00,,,-99.99,WeatherLink 5.7,2013-10-26 04:09:00,
2013-10-25 23:39:00,53.0,46.3,29.78,South,180,0.0,3.0,78,0.00,,,-99.99,WeatherLink 5.7,2013-10-26 04:39:00,